Cold Bay, AK

6:10 AM AKDT on May 30, 2017 (GMT -0800)
Cold Bay

Weather History for PACD - April, 2013

Change the Weather History Date:

Tuesday, April 23, 2013

  Actual Average Record
Temperature  
Mean Temperature 44 °F 36 °F  
Max Temperature 53 °F 41 °F 54 °F (2013)
Min Temperature 35 °F 31 °F 15 °F (1976)
Degree Days  
Heating Degree Days 21 29  
Month to date heating degree days 735 730  
Since 1 July heating degree days 8203 8030  
Cooling Degree Days 0 0  
Month to date cooling degree days 0 0  
Year to date cooling degree days 0 0  
Moisture  
Dew Point 37 °F    
Average Humidity 0    
Maximum Humidity 0    
Minimum Humidity 0    
Precipitation  
Precipitation T in 0.09 in 0.62 in (1979)
Month to date precipitation 1.92 1.88  
Year to date precipitation 11.54 10.72  
Snow  
Snow 0.00 in 0.20 in 2.00 in (2011)
Month to date snowfall 2.1 5.7  
Since 1 July snowfall 64.2 70.9  
Snow Depth 0.00 in    
Sea Level Pressure  
Sea Level Pressure 30.15 in    
Wind  
Wind Speed 20 mph (NE)    
Max Wind Speed 35 mph    
Max Gust Speed 41 mph    
Visibility 10 miles    
Events Rain    
T = Trace of Precipitation, MM = Missing Value Source: NWS Daily Summary

Daily Weather History Graph

Daily Weather History Graph

Search for Another Location

Airport or City:

Trip Planner

Search our weather history database for the weather conditions in past years. The results will help you decide how hot, cold, wet, or windy it might be!

Date:

Astronomy

Apr. 23, 2013 Rise Set
Actual Time 7:26 AM AKDT 10:12 PM AKDT
Civil Twilight 6:45 AM AKDT 10:53 PM AKDT
Nautical Twilight 5:52 AM AKDT 11:48 PM AKDT
Astronomical Twilight 4:42 AM AKDT 12:59 AM AKDT
Moon 8:06 PM AKDT (4/23) 6:23 AM AKDT (4/23)
Length of Visible Light 16h 08m
Length of Day
14h 45m
Waxing Gibbous, 95% of the Moon is Illuminated
Apr 23
Waxing Gibbous
Apr 25
Full
May 2
Last Quarter
May 9
New
May 17
First Quarter

Hourly Weather History & Observations

Time (AKDT) Temp. Windchill Dew Point Humidity Pressure Visibility Wind Dir Wind Speed Gust Speed Precip Events Conditions
12:25 AM 37.4 °F 27.2 °F 33.8 °F 87% 30.08 in 10.0 mi North 19.6 mph - N/A   Overcast
12:34 AM 37.4 °F 27.2 °F 33.8 °F 87% 30.08 in 10.0 mi North 19.6 mph 27.6 mph N/A   Overcast
12:53 AM 37.0 °F 25.9 °F 33.1 °F 86% 30.07 in 10.0 mi North 23.0 mph 29.9 mph N/A   Overcast
1:53 AM 36.0 °F 23.9 °F 34.0 °F 93% 30.08 in 10.0 mi North 25.3 mph 29.9 mph N/A   Overcast
2:53 AM 36.0 °F 24.4 °F 33.1 °F 89% 30.08 in 10.0 mi North 23.0 mph 33.4 mph N/A   Overcast
3:31 AM 35.6 °F 23.0 °F 33.8 °F 93% 30.06 in 10.0 mi North 27.6 mph 34.5 mph N/A   Overcast
3:53 AM 36.0 °F 24.2 °F 33.1 °F 89% 30.07 in 9.0 mi North 24.2 mph - N/A   Overcast
4:53 AM 36.0 °F 24.2 °F 34.0 °F 93% 30.05 in 7.0 mi North 24.2 mph 34.5 mph N/A   Overcast
5:53 AM 36.0 °F 23.7 °F 34.0 °F 93% 30.04 in 10.0 mi North 26.5 mph 35.7 mph N/A   Overcast
6:27 AM 35.6 °F 23.2 °F 33.8 °F 93% 30.04 in 10.0 mi North 26.5 mph 39.1 mph N/A   Overcast
6:53 AM 36.0 °F 23.5 °F 34.0 °F 93% 30.05 in 10.0 mi North 27.6 mph 36.8 mph N/A   Overcast
7:53 AM 37.0 °F 24.7 °F 34.0 °F 89% 30.04 in 10.0 mi North 28.8 mph 36.8 mph 0.00 in Rain Light Rain
8:53 AM 37.9 °F 26.6 °F 34.0 °F 86% 30.06 in 10.0 mi NNE 25.3 mph 31.1 mph 0.00 in Rain Light Rain
9:53 AM 39.0 °F 28.3 °F 35.1 °F 86% 30.08 in 10.0 mi NNE 24.2 mph 32.2 mph 0.00 in   Overcast
10:53 AM 39.9 °F 30.0 °F 36.0 °F 86% 30.10 in 10.0 mi NNE 21.9 mph 28.8 mph N/A   Overcast
11:53 AM 42.1 °F 34.2 °F 37.0 °F 82% 30.13 in 10.0 mi NNE 16.1 mph - 0.00 in   Overcast
12:51 PM 44.6 °F 38.8 °F 39.2 °F 81% 30.14 in 10.0 mi NNE 11.5 mph - N/A   Overcast
12:53 PM 45.0 °F 38.9 °F 39.0 °F 80% 30.14 in 10.0 mi NNE 12.7 mph - N/A   Overcast
1:53 PM 46.0 °F 39.9 °F 39.0 °F 76% 30.16 in 10.0 mi NNE 13.8 mph - 0.00 in Rain Light Rain
2:53 PM 46.9 °F - 39.0 °F 74% 30.18 in 10.0 mi NE 6.9 mph - 0.00 in   Overcast
3:36 PM 50.0 °F - 39.2 °F 66% 30.17 in 10.0 mi ENE 4.6 mph - N/A   Overcast
3:53 PM 53.1 °F - 41.0 °F 64% 30.18 in 10.0 mi SSE 17.3 mph 20.7 mph N/A   Overcast
4:53 PM 53.1 °F - 42.1 °F 66% 30.19 in 10.0 mi SE 17.3 mph 26.5 mph N/A   Mostly Cloudy
5:08 PM 51.8 °F - 41.0 °F 67% 30.19 in 10.0 mi SE 15.0 mph - N/A   Mostly Cloudy
5:53 PM 52.0 °F - 41.0 °F 66% 30.20 in 10.0 mi SSE 16.1 mph - N/A   Mostly Cloudy
6:53 PM 48.0 °F - 41.0 °F 77% 30.22 in 10.0 mi SSE 19.6 mph - N/A   Overcast
7:53 PM 46.9 °F - 39.9 °F 77% 30.23 in 10.0 mi South 18.4 mph - N/A   Overcast
8:53 PM 46.0 °F 39.6 °F 39.9 °F 79% 30.25 in 10.0 mi South 15.0 mph - N/A   Overcast
9:44 PM 46.4 °F 42.4 °F 39.2 °F 76% 30.26 in 10.0 mi SSE 8.1 mph - N/A   Overcast
9:53 PM 46.0 °F 41.9 °F 39.9 °F 79% 30.27 in 10.0 mi SSE 8.1 mph - N/A   Overcast
10:29 PM 44.6 °F 39.2 °F 39.2 °F 81% 30.27 in 10.0 mi South 10.4 mph - N/A   Overcast
10:53 PM 45.0 °F 39.7 °F 39.0 °F 80% 30.27 in 10.0 mi SSE 10.4 mph - N/A   Overcast
11:17 PM 42.8 °F 36.6 °F 37.4 °F 81% 30.26 in 10.0 mi SSE 11.5 mph - N/A   Mostly Cloudy
11:31 PM 42.8 °F 35.8 °F 37.4 °F 81% 30.27 in 10.0 mi SSE 13.8 mph - N/A   Partly Cloudy
11:53 PM 41.0 °F 34.7 °F 37.0 °F 86% 30.27 in 10.0 mi South 10.4 mph - N/A   Clear